Voltar ao catálogo

STARLINK-3536

AtivoComunicaçõesVLEO
NORAD 51888·PAYLOAD·🇺🇸 United States

Lançado Mar 3, 2022 de Cape Canaveral Space Force Station

Loading…

Próximas Passagens (próximas 24 horas)

TLE

AtualizadoSource: CelesTrak SupGP

Época: Sep 14, 2026, 22:14 UTC

1 51888C 22022AN  26257.92687500  .00005356  00000+0  16251-3 0  2570
2 51888  53.1570 215.9545 0001443  95.9395 354.4453 15.33549429    10

Acompanhe STARLINK-3536 em tempo real com AllMySat

Download on the App Store